CW1172 Weather Reports


time (UTC)temp
C
wind
direction
speed
KPH
gust
KPH
rain 1hr
cm
rain 24hr
cm
rain mn
cm
humidity
%
barometer
mb
20260506084523 13 155 0.0 0.0 0.00 0.00 0.00 32 1011.9
20260506083019 12 173 0.0 0.0 0.00 0.00 0.00 33 1011.9
20260506081517 12 176 0.0 0.0 0.00 0.00 0.00 33 1011.8
20260506073009 11 360 0.0 0.0 0.00 0.00 0.00 45 1011.7
20260506071506 11 360 0.0 0.0 0.00 0.00 0.00 51 1011.8
20260506061553 7 126 0.0 0.0 0.00 0.00 0.00 62 1011.9
20260506044544 2 143 0.0 0.0 0.00 0.00 0.00 74 1012.0
20260506043037 2 129 0.0 0.0 0.00 0.00 0.00 76 1012.0
20260506041550 1 145 0.0 0.0 0.00 0.00 0.00 79 1011.9
20260506040033 1 132 0.0 0.0 0.00 0.00 0.00 81 1011.8
20260506034543 0 128 0.0 0.0 0.00 0.00 0.00 82 1011.8
20260506033028 1 144 0.0 0.0 0.00 0.00 0.00 82 1011.8
20260506031528 1 139 0.0 0.0 0.00 0.00 0.00 83 1011.7
20260506030027 0 142 0.0 0.0 0.00 0.00 0.00 86 1011.6
20260506024529 0 131 0.0 0.0 0.00 0.00 0.00 87 1011.6
20260506023025 -1 131 0.0 0.0 0.00 0.00 0.00 86 1011.6
20260506021524 -1 145 0.0 0.0 0.00 0.00 0.00 86 1011.5
20260506020025 -1 130 0.0 0.0 0.00 0.00 0.00 86 1011.4
20260506014527 -1 131 0.0 0.0 0.00 0.00 0.00 85 1011.3
20260506013037 0 128 0.0 0.0 0.00 0.00 0.00 85 1011.4
20260506011527 0 116 0.0 0.0 0.00 0.00 0.00 85 1011.3
20260506010025 0 155 0.0 0.0 0.00 0.00 0.00 84 1011.3
20260506004521 0 134 0.0 0.0 0.00 0.00 0.00 85 1011.3
20260506003020 0 132 0.0 0.0 0.00 0.00 0.00 84 1011.1
20260506001519 0 128 0.0 0.0 0.00 0.00 0.00 83 1011.2
20260506000018 0 119 0.0 0.0 0.00 0.00 0.00 83 1011.3
20260505234519 0 121 0.0 0.0 0.00 0.00 0.00 83 1011.2
20260505233025 0 121 0.0 0.0 0.00 0.00 0.00 82 1011.2
20260505231515 0 120 0.0 0.0 0.00 0.00 0.00 82 1011.3
20260505230014 0 121 0.0 0.0 0.00 0.00 0.00 81 1011.3
20260505224514 0 132 0.0 0.0 0.00 0.00 0.00 80 1011.5
20260505223011 0 166 0.0 0.0 0.00 0.00 0.00 79 1011.7
20260505221510 0 166 0.0 0.0 0.00 0.00 0.00 78 1011.7
20260505220022 0 167 0.0 0.0 0.00 0.00 0.00 78 1011.6
20260505214507 1 167 0.0 0.0 0.00 0.00 0.00 77 1011.8
20260505213005 1 166 0.0 0.0 0.00 0.00 0.00 76 1011.7
20260505211503 1 167 0.0 0.0 0.00 0.00 0.00 74 1011.8
20260505210001 2 167 0.0 0.0 0.00 0.00 0.00 73 1011.5
20260505204503 2 165 0.0 0.0 0.00 0.00 0.00 71 1011.5
20260505203108 3 219 0.0 0.0 0.00 0.00 0.00 70 1011.4
20260505201556 3 219 0.0 0.0 0.00 0.00 0.00 69 1011.4
20260505200108 4 221 0.0 0.0 0.00 0.00 0.00 68 1011.5
20260505194556 5 219 0.0 0.0 0.00 0.00 0.00 65 1011.4
20260505193103 6 219 0.0 0.0 0.00 0.00 0.00 63 1011.3
20260505191604 6 219 0.0 0.0 0.00 0.00 0.00 59 1011.3
20260505190052 7 218 0.0 0.0 0.00 0.00 0.00 59 1011.2
20260505184551 7 360 0.0 0.0 0.00 0.00 0.00 56 1010.9
20260505183050 8 316 0.0 0.0 0.00 0.00 0.00 54 1010.8
20260505181555 8 288 0.0 0.0 0.00 0.00 0.00 51 1010.8
20260505180048 8 360 0.0 0.0 0.00 0.00 0.00 47 1010.8
20260505174548 9 301 0.0 0.0 0.00 0.00 0.00 43 1010.7
20260505173046 10 292 0.0 0.0 0.00 0.00 0.00 37 1010.6
20260505171547 11 171 0.0 0.0 0.00 0.00 0.00 35 1010.6
20260505170046 11 306 0.0 0.0 0.00 0.00 0.00 33 1010.5
20260505164549 12 360 0.0 0.0 0.00 0.00 0.00 32 1010.5
20260505163045 11 309 0.0 0.0 0.00 0.00 0.00 35 1010.5
20260505161547 11 244 0.0 0.0 0.00 0.00 0.00 34 1010.5
20260505153043 11 269 0.0 0.0 0.00 0.00 0.00 35 1010.5
20260505151543 11 263 0.0 0.0 0.00 0.00 0.00 38 1010.6
20260505124549 11 259 0.0 0.0 0.00 0.00 0.00 40 1010.6
20260505123040 11 360 0.0 0.0 0.00 0.00 0.00 37 1010.7
20260505121543 11 276 0.0 0.0 0.00 0.00 0.00 39 1010.7
20260505120040 11 344 0.0 0.0 0.00 0.00 0.00 36 1010.4
20260505114539 11 360 0.0 0.0 0.00 0.00 0.00 33 1010.5
20260505113039 11 277 0.0 0.0 0.00 0.00 0.00 36 1010.5
20260505111540 11 360 0.0 0.0 0.00 0.00 0.00 38 1010.4
20260505101544 12 327 0.0 0.0 0.00 0.00 0.00 35 1010.3
20260505100037 11 334 0.0 0.0 0.00 0.00 0.00 33 1010.3
20260505094534 11 318 0.0 0.0 0.00 0.00 0.00 36 1010.3
20260505093034 11 278 0.0 0.0 0.00 0.00 0.00 36 1010.2
20260505091536 11 282 0.0 0.0 0.00 0.00 0.00 40 1010.1
20260505090041 11 360 0.0 0.0 0.00 0.00 0.00 40 1010.0